Location: Unspecified
(51.3762°N, 0.0000°E)
Time: 19:18:13
(UTC+00:00)

Tiangong 2 - Visible Passes

Search period start: 19 May 2019 00:00
Search period end: 29 May 2019 00:00
Orbit: 378 x 387 km, 42.8° (Epoch: 19 May)

Date Brightness Start Highest point End Pass type
(mag) Time Alt. Az. Time Alt. Az. Time Alt. Az.
20 May 3.2 20:59:23 10° S 21:00:26 11° SSE 21:00:26 11° SSE visible
21 May 2.9 21:34:33 10° SSW 21:36:03 16° S 21:36:03 16° S visible
22 May 3.0 20:35:05 10° SSW 20:36:50 14° SSE 20:38:34 10° SE visible
22 May 3.4 22:10:41 10° SW 22:11:19 13° SW 22:11:19 13° SW visible
23 May 2.8 21:10:51 10° SW 21:13:01 17° S 21:14:10 15° SSE visible
24 May 3.0 21:47:16 10° SW 21:49:02 15° SSW 21:49:02 15° SSW visible
25 May 2.9 20:47:16 10° SW 20:49:24 17° S 20:51:33 10° SE visible
26 May 3.2 21:24:01 10° SW 21:25:34 13° SSW 21:26:22 12° S visible
28 May 3.6 21:01:36 10° SSW 21:01:50 10° SSW 21:02:05 10° SSW visible
